Theta_e
318 317 318 315 315 315 317 316 316 317 317 316 316 316 315 314 309 306 306 307 305 305 308 304 305 307 309 311 312 312 310 310 312 313 314 313 312 307 305 304 305 304 301 301 302 302 303 305 306 309 311 311 311 310 310 309 308 310 311 310 310 310 309 311 310 314 319 322 322 319 319 322 323 320
318 317 317 316 314 317 317 316 319 318 317 315 314 314 314 316 311 309 306 305 309 306 307 307 304 304 306 307 309 310 308 308 310 310 310 310 310 305 304 303 304 304 302 301 301 303 303 303 304 307 308 309 308 308 310 309 308 310 309 307 309 311 313 314 315 317 319 319 319 319 320 321 320 321
318 316 315 316 314 318 318 318 318 318 317 315 313 314 315 315 315 312 309 304 306 311 305 305 306 304 305 305 308 308 308 307 309 311 310 308 307 307 305 304 303 303 302 302 301 305 305 303 303 304 305 306 306 306 308 309 308 308 307 305 306 309 311 312 313 315 317 318 319 320 319 319 319 319
317 315 315 315 313 315 315 316 317 316 317 317 313 313 312 313 316 313 310 307 305 309 305 306 305 306 307 306 305 307 307 307 307 310 310 310 308 309 310 304 302 302 301 301 301 302 303 304 303 301 300 301 303 303 304 305 305 306 305 304 305 307 308 308 309 311 314 315 316 316 315 317 317 317
316 314 313 313 314 317 315 315 315 314 313 314 314 313 311 311 314 312 310 306 305 306 308 306 304 306 308 304 305 305 308 309 308 308 310 310 309 309 310 309 303 301 300 300 300 300 300 300 301 298 297 299 300 300 301 302 301 302 302 301 303 305 307 306 307 306 309 311 312 312 313 313 313 313
317 317 313 312 314 314 313 314 310 311 311 310 309 309 309 307 309 312 307 306 304 303 306 304 306 305 308 304 305 307 307 307 308 306 307 307 306 307 308 308 308 301 301 300 299 300 300 299 299 299 299 299 299 300 300 300 300 300 299 300 301 304 305 304 303 303 306 308 308 310 311 311 312 313
317 316 315 314 315 315 314 314 313 314 311 311 309 309 308 308 309 309 309 308 306 305 304 306 304 305 305 305 303 304 306 306 306 305 306 305 305 306 307 306 307 301 300 300 300 300 300 300 299 299 299 299 298 298 299 299 299 298 298 299 300 300 300 299 300 301 302 305 307 309 309 308 309 311
317 317 316 315 315 315 314 313 312 312 313 312 310 309 308 309 308 310 311 312 309 307 305 304 304 305 306 304 304 304 305 305 305 305 306 306 305 305 305 305 305 303 302 300 300 300 300 299 299 299 299 299 299 299 299 299 299 298 299 299 298 298 298 298 298 298 300 303 305 306 306 307 309 311
317 317 317 316 315 315 314 314 312 312 312 310 311 309 307 307 308 309 309 310 310 309 308 305 305 306 305 304 305 304 304 305 305 305 305 304 305 307 307 306 304 301 299 301 301 300 300 299 299 299 299 299 299 298 299 299 298 299 299 299 299 298 298 298 298 297 298 298 299 302 304 304 306 310
318 318 318 318 317 315 314 314 314 313 312 310 311 309 306 306 308 309 309 310 312 311 309 308 305 306 305 305 305 304 305 305 305 305 306 306 306 306 306 306 304 306 305 307 306 302 300 300 299 299 299 299 298 299 299 299 299 299 299 298 298 298 298 298 298 298 298 298 297 297 299 303 305 309
318 319 318 319 319 317 316 315 314 314 313 312 311 310 309 307 308 308 308 308 310 310 309 308 308 306 305 307 305 304 305 304 304 303 304 304 305 306 305 304 305 307 307 304 300 300 300 299 300 299 299 299 299 299 298 298 299 299 298 297 297 297 297 298 298 298 298 298 298 298 297 299 302 305
319 319 319 318 319 319 318 317 317 316 314 312 312 311 309 308 308 307 306 308 309 309 309 308 307 306 305 305 305 305 305 305 305 303 302 302 303 304 305 306 304 305 305 304 304 301 301 300 300 299 299 299 298 298 299 300 301 300 298 297 296 297 297 298 298 299 299 299 299 298 298 298 297 302
319 319 319 319 319 319 317 310 311 311 311 313 311 310 309 307 306 306 306 307 308 308 309 307 307 306 305 305 304 304 303 302 301 303 303 303 304 303 303 305 306 303 302 302 301 301 303 301 302 302 303 304 301 302 300 301 301 298 297 296 297 297 297 298 298 299 299 299 299 298 298 298 298 297
319 318 319 320 316 311 309 305 301 300 300 304 310 312 309 307 307 307 306 306 308 309 308 307 306 305 305 303 304 303 303 303 304 303 303 301 301 302 302 304 305 304 302 299 298 300 302 301 301 301 301 303 303 303 304 304 300 298 296 296 297 297 298 298 298 298 297 297 297 297 297 297 297 296
320 319 318 319 317 313 309 310 300 299 298 297 296 298 302 304 308 307 306 306 307 305 306 305 304 302 302 303 304 304 303 304 302 301 301 301 301 299 298 297 301 306 301 298 297 299 302 302 299 299 301 302 303 303 303 297 297 297 296 296 296 297 297 297 296 296 296 296 296 296 296 296 297 297
321 320 321 322 321 320 318 316 313 305 298 296 295 294 295 295 294 298 306 304 301 303 303 302 302 301 302 303 303 304 303 303 302 302 301 301 299 298 297 297 296 301 302 297 296 297 302 302 300 300 300 301 302 302 298 297 296 296 296 296 296 297 297 296 295 296 296 295 295 295 295 295 295 295
321 321 320 321 321 320 313 313 316 316 309 295 294 294 293 292 292 291 291 294 307 306 305 304 302 302 303 302 303 303 302 301 300 301 300 300 299 298 297 297 297 299 301 297 296 295 298 300 299 298 300 302 302 301 298 296 296 296 296 296 296 296 296 295 295 295 294 295 295 295 295 295 294 294
320 320 320 320 320 319 318 317 315 314 311 305 303 303 305 303 299 294 292 292 293 301 306 304 303 304 302 301 302 301 300 299 299 298 298 299 297 297 296 298 297 299 300 297 296 294 297 299 298 297 299 301 301 301 299 296 296 295 296 296 295 296 296 295 294 294 294 294 294 295 295 295 293 293
316 318 318 318 317 316 315 314 311 312 310 307 306 305 305 305 304 304 304 304 304 303 303 303 303 302 302 301 300 301 301 301 300 299 298 298 297 297 298 298 299 299 300 299 296 292 295 298 297 297 299 299 299 301 298 297 296 296 296 295 295 295 295 295 294 294 294 294 294 295 295 294 293 293
312 313 314 315 313 312 311 299 295 302 309 307 306 305 304 303 302 300 294 292 294 300 302 302 301 300 300 295 299 299 299 300 299 298 298 299 298 296 295 294 297 296 299 299 295 293 294 298 296 296 298 298 298 299 300 297 297 296 296 295 295 295 295 295 295 295 294 295 295 296 295 295 294 293
310 310 311 312 310 309 306 294 293 295 301 307 306 305 304 303 303 301 298 293 291 290 290 289 289 289 289 290 290 290 289 295 297 297 295 295 297 294 292 293 294 295 297 298 297 295 293 296 296 295 296 297 296 297 299 301 297 296 296 295 295 295 295 295 295 295 295 295 295 295 295 295 294 294
306 303 300 305 308 306 302 291 292 294 303 307 305 304 303 302 300 297 296 296 293 290 290 289 289 289 289 289 288 289 290 289 293 296 293 295 294 293 293 291 293 294 295 296 298 294 293 295 295 293 295 295 297 298 299 299 299 297 296 295 295 295 295 295 295 295 295 295 295 296 295 295 294 300
304 302 297 295 298 299 294 289 290 293 302 306 305 304 303 300 298 295 295 294 294 295 295 296 297 295 293 296 298 297 290 290 292 297 296 295 294 292 292 292 292 291 294 296 297 292 293 293 294 293 292 291 294 297 297 298 298 298 298 299 299 295 295 295 295 295 295 295 295 295 295 294 295 300
303 302 300 295 289 289 289 289 289 290 293 301 301 301 300 298 294 295 295 294 295 295 295 296 296 296 296 297 297 297 297 297 297 297 297 296 295 293 292 292 291 290 291 296 297 292 293 294 292 295 292 289 287 293 296 296 297 297 297 297 297 296 295 295 296 295 294 295 295 295 294 294 294 300
302 301 299 298 290 288 289 289 289 289 290 292 298 298 296 294 293 293 294 293 291 295 294 295 295 296 296 296 297 296 296 296 296 296 296 296 296 294 292 291 291 291 292 296 293 294 291 293 291 292 292 292 291 291 293 294 295 295 296 296 296 297 298 299 298 299 296 295 295 294 294 294 294 298
302 300 299 298 291 288 288 288 289 289 290 290 296 293 288 287 288 294 294 295 295 295 295 295 294 295 294 294 295 295 295 295 295 295 296 296 296 296 295 292 291 290 291 295 292 294 291 291 291 290 291 290 290 290 289 290 293 294 295 296 296 297 297 297 298 298 299 299 300 297 298 294 294 294
300 300 298 295 289 288 288 288 289 289 289 291 292 287 287 288 288 292 295 294 295 294 294 294 293 293 294 294 293 293 294 294 295 295 295 295 295 295 295 294 294 293 293 294 295 294 293 291 292 290 289 290 288 289 289 288 290 294 293 294 295 296 297 297 296 297 298 298 299 295 294 293 292 292
300 300 298 294 288 288 288 287 288 288 289 290 287 287 287 288 290 294 294 294 293 292 291 292 293 293 293 293 293 293 294 293 294 293 293 293 294 294 294 294 293 294 293 293 294 294 293 291 291 291 291 289 287 286 286 290 290 291 291 294 295 295 296 296 296 295 296 298 298 299 299 299 300 300
298 291 288 287 288 287 287 287 288 288 287 286 286 286 288 291 294 293 292 292 292 291 290 291 292 292 292 292 292 293 293 293 293 293 293 293 293 292 292 291 291 291 292 292 292 292 292 291 291 291 290 290 288 288 288 287 289 290 290 290 290 292 294 296 296 295 295 297 297 297 298 298 298 299
288 288 287 287 288 289 291 294 294 293 291 287 287 287 289 294 292 292 292 292 291 291 291 290 290 290 291 291 292 292 291 290 290 290 290 289 289 290 289 288 289 291 292 292 292 291 291 291 291 291 289 289 289 288 289 288 287 289 289 289 290 291 293 294 295 295 295 295 296 297 298 299 299 298
292 291 292 291 289 288 286 288 288 289 289 291 292 293 292 292 292 292 291 291 290 290 290 289 289 290 290 290 289 290 289 289 289 290 288 288 288 289 288 287 287 288 291 292 292 292 291 291 291 291 288 288 289 289 289 289 287 288 289 290 290 287 291 293 294 294 294 294 295 296 297 297 297 297
294 292 288 290 293 293 293 293 294 293 293 290 288 292 292 292 291 290 289 290 292 291 289 288 288 288 288 287 288 288 288 288 289 290 289 288 288 288 288 286 286 287 288 290 291 292 290 292 291 291 290 289 288 289 289 288 287 288 288 290 290 290 291 291 292 293 294 294 293 294 294 295 295 297
294 294 294 292 292 292 289 290 290 291 291 290 291 292 292 292 292 292 292 291 290 290 289 288 287 287 287 287 288 288 288 289 289 290 289 289 288 288 288 286 286 286 286 287 289 291 292 292 292 291 291 291 291 290 288 286 287 289 288 289 290 289 290 291 291 291 293 292 291 292 292 294 296 296
293 291 291 291 290 290 290 290 289 289 289 289 289 289 288 290 291 290 291 291 290 289 288 288 287 287 287 287 288 288 287 288 289 289 288 288 288 287 286 286 286 287 287 287 288 289 290 291 291 291 291 291 292 291 290 287 287 289 290 290 289 289 290 291 292 293 292 292 291 290 291 292 294 295
291 290 290 289 289 289 289 289 288 288 288 288 288 289 289 290 289 288 290 290 289 289 288 288 288 287 287 287 287 286 286 287 288 288 289 289 288 287 286 285 286 286 287 287 287 288 289 289 289 288 288 288 288 290 292 291 289 288 289 289 290 289 290 292 292 292 292 292 292 289 289 291 292 295
291 291 290 289 289 289 288 288 288 288 288 288 288 288 288 288 289 289 289 289 290 289 289 288 288 287 287 287 287 287 287 286 287 287 287 287 287 286 286 286 286 286 287 287 287 289 289 288 287 285 284 284 284 284 286 292 292 291 289 288 290 290 291 292 293 293 292 291 292 290 288 288 290 294
290 290 289 289 289 289 288 288 288 288 289 288 287 288 287 287 288 289 291 289 291 289 289 288 288 287 287 287 287 287 287 286 286 287 286 287 286 286 286 286 286 287 286 287 288 288 288 287 287 286 284 283 282 282 284 288 290 292 291 288 289 291 291 290 290 289 290 291 291 291 289 289 290 292
289 290 289 289 289 289 288 289 288 288 288 288 288 288 288 289 290 290 292 291 290 289 289 289 288 288 288 287 286 286 287 287 287 286 286 286 286 285 286 285 286 286 287 287 288 288 288 287 286 286 285 283 282 282 283 286 287 289 292 291 288 289 290 289 288 288 288 291 290 290 289 288 289 289
291 289 289 288 289 289 288 288 288 288 289 288 288 288 287 288 289 289 289 289 289 289 289 289 288 288 287 287 287 287 286 286 286 286 286 286 286 285 285 285 285 286 286 286 287 287 288 287 287 287 286 284 283 284 285 285 285 288 290 291 291 288 288 288 288 288 288 288 290 290 288 287 287 287
290 290 289 288 288 290 289 288 289 289 289 289 288 288 287 287 288 288 288 289 289 288 289 288 288 287 288 288 287 287 286 286 286 286 286 286 286 286 286 286 285 285 285 285 285 286 287 287 288 288 288 288 287 288 288 287 288 289 289 289 290 289 289 289 288 288 288 289 290 288 287 287 287 288
289 288 288 289 290 290 290 290 290 289 289 289 289 287 287 287 287 287 287 288 287 288 288 288 288 287 288 288 287 286 285 286 286 286 286 286 286 286 286 285 285 285 285 284 285 286 287 288 289 287 288 289 289 288 286 284 284 286 287 290 291 289 289 289 290 289 289 290 289 288 287 287 287 287
289 288 289 290 290 290 290 290 290 289 289 289 288 287 286 286 287 285 287 287 287 287 288 288 288 288 288 288 287 287 286 285 285 286 286 286 286 286 286 286 285 285 285 284 285 287 289 291 289 290 290 288 287 284 283 284 284 286 287 289 291 290 288 288 288 288 291 290 288 287 286 286 287 286
288 289 289 290 290 289 289 289 290 289 289 288 287 287 286 286 287 287 288 288 288 288 288 288 288 288 288 288 287 287 286 286 286 285 285 286 285 285 285 286 286 286 286 286 287 288 288 289 289 288 288 287 286 285 284 285 286 286 287 289 289 290 289 288 289 288 288 288 288 287 289 288 287 285
289 289 290 288 289 289 289 289 289 288 288 287 287 287 286 286 286 286 287 287 287 288 287 287 288 288 287 287 287 286 286 286 286 286 286 286 286 286 286 286 286 286 287 287 287 288 288 288 288 288 287 286 286 286 285 285 286 287 287 288 289 288 287 288 288 287 287 286 286 287 287 287 287 286
289 289 289 289 289 289 289 289 289 288 288 287 287 286 285 286 285 286 286 286 286 286 286 286 286 286 286 286 286 285 286 286 286 286 286 286 287 287 287 287 287 287 286 287 286 287 288 288 288 289 287 287 287 287 287 286 286 286 287 287 286 286 287 287 286 285 285 286 286 286 286 286 286 286
Wind_Speed
3 4 4 5 4 4 4 4 4 4 4 4 2 1 3 4 7 7 6 5 4 6 5 4 7 7 7 6 6 7 8 9 7 8 8 9 9 11 15 14 14 14 14 13 12 12 13 13 14 14 12 13 12 11 11 11 11 11 11 11 10 9 8 9 9 9 11 12 11 10 9 9 14 15
3 3 3 3 4 3 4 4 3 4 4 4 3 2 1 1 3 5 6 5 4 4 5 5 5 6 6 5 6 6 7 9 8 8 8 8 8 13 14 14 14 14 14 14 13 13 12 12 13 12 11 11 11 11 11 11 11 10 11 10 11 10 9 8 9 11 10 10 9 9 9 8 8 11
1 2 3 2 3 2 3 3 3 3 3 4 4 4 3 2 3 6 7 7 3 2 4 4 4 5 6 5 5 5 6 7 6 7 7 8 4 8 12 13 13 13 13 13 13 13 12 12 12 11 12 12 12 12 11 11 10 9 8 8 9 10 9 9 9 9 9 9 10 9 8 7 7 9
0 2 2 2 2 2 2 3 3 3 3 2 4 5 5 5 4 4 5 7 6 2 3 3 3 4 5 5 5 5 4 5 6 6 6 6 3 5 7 12 11 11 11 12 12 12 12 10 11 10 11 11 12 11 11 11 9 8 6 6 6 7 9 9 8 9 9 9 9 9 9 9 7 6
1 1 2 3 2 1 2 3 3 3 3 3 4 4 5 6 5 5 6 7 7 4 1 2 3 2 0 4 4 5 4 4 4 4 5 6 5 5 4 6 11 9 9 10 11 11 12 12 11 11 11 10 10 11 11 11 11 10 9 8 7 7 6 8 7 7 7 7 8 8 9 9 8 7
2 2 2 3 3 1 2 3 4 4 3 4 4 4 4 6 5 4 6 6 5 5 4 3 2 3 1 3 4 4 4 4 3 5 4 5 6 5 5 4 6 8 7 8 9 9 10 10 10 11 11 10 9 9 10 10 10 10 10 9 9 9 8 7 6 7 7 7 6 6 6 7 7 9
2 3 3 3 3 2 3 3 3 3 3 2 4 4 3 5 4 4 5 5 5 5 4 2 3 2 3 3 4 3 3 3 3 3 4 4 4 4 5 4 3 8 5 6 7 8 8 9 9 9 10 10 10 9 9 9 9 10 10 10 9 9 9 9 9 7 6 7 7 7 6 6 7 8
3 4 4 4 4 4 4 4 4 3 3 3 4 4 4 4 4 3 3 3 4 4 4 2 1 2 2 2 2 1 2 2 3 3 2 2 4 4 4 4 3 5 3 3 5 6 6 7 8 8 9 9 9 9 8 8 8 9 9 9 9 10 10 9 9 9 7 7 6 7 7 7 8 8
6 6 6 5 4 4 4 4 4 4 5 4 4 5 4 5 4 3 3 4 5 4 4 4 2 1 2 2 2 3 2 1 1 2 2 2 3 3 2 2 2 3 6 4 1 4 4 4 7 7 8 9 9 9 9 8 8 8 8 7 8 9 10 9 9 9 9 9 8 8 9 9 10 10
6 7 8 5 5 6 6 5 5 5 7 5 4 4 3 4 4 4 4 3 4 5 4 4 4 2 2 2 2 2 2 2 3 3 2 1 1 3 4 3 1 2 1 2 2 2 5 5 7 5 7 9 9 9 9 9 9 8 8 7 7 9 9 8 9 9 9 9 9 9 10 10 11 12
7 7 7 7 6 7 8 8 7 6 6 5 6 5 4 3 3 2 2 1 4 4 5 3 2 4 3 0 1 2 1 1 2 4 4 3 2 2 4 5 3 1 2 3 7 5 5 7 7 6 8 8 8 9 9 10 8 7 7 7 8 9 8 7 7 8 8 8 8 9 9 11 12 13
6 7 7 7 7 8 8 9 7 7 7 5 6 5 4 4 4 3 2 2 2 3 3 2 3 2 2 2 1 1 1 0 0 3 3 5 5 5 4 3 3 2 3 4 5 4 6 7 7 9 11 11 7 9 10 8 7 6 5 8 9 9 7 7 7 8 8 7 8 8 8 8 9 12
5 6 5 6 6 6 7 7 6 5 4 4 6 5 5 5 5 5 4 4 3 2 3 3 3 2 2 1 1 1 2 3 4 3 3 4 4 6 6 4 0 2 5 6 7 6 4 6 6 5 5 3 6 6 7 8 6 4 9 10 9 8 6 6 7 8 8 9 9 9 8 8 8 9
2 3 6 6 7 6 8 8 5 5 8 8 7 4 6 7 6 6 5 5 4 3 3 2 1 1 0 1 1 1 0 1 1 2 3 5 5 5 6 5 0 2 4 7 9 8 4 5 6 5 5 4 4 5 5 5 8 11 10 10 9 7 5 6 7 8 9 9 9 9 10 10 9 9
3 5 7 6 5 5 5 5 10 11 10 10 6 6 7 8 8 7 5 3 2 2 1 2 1 0 0 1 1 1 1 1 2 3 3 4 5 5 7 8 5 3 5 7 8 8 5 4 6 6 6 5 5 5 5 8 11 11 10 9 9 6 4 6 8 8 9 8 9 9 10 11 11 10
2 3 5 4 2 2 1 2 5 8 10 9 8 8 8 4 2 3 2 3 3 2 2 2 1 1 2 1 2 1 1 2 3 2 4 3 4 6 6 6 7 5 6 8 9 9 5 4 5 6 5 5 4 5 7 10 10 11 10 9 9 8 6 7 8 9 9 9 8 9 9 10 11 11
4 3 4 4 4 3 1 4 5 5 5 5 7 9 8 6 5 6 7 6 1 3 2 2 3 2 1 2 1 1 1 1 4 4 5 4 5 5 6 6 7 7 5 6 7 9 8 6 5 7 6 4 4 6 7 5 9 12 12 11 9 9 8 8 9 10 10 9 9 9 9 9 9 11
4 3 4 4 4 4 3 1 1 3 5 7 7 7 5 5 5 7 8 7 6 4 1 0 1 2 1 1 2 2 1 2 4 5 6 6 6 6 7 8 9 8 5 6 6 9 7 5 7 8 7 5 6 7 6 6 11 13 12 11 11 10 9 9 10 10 10 11 11 10 9 8 9 10
3 3 2 2 3 3 3 2 1 2 5 7 6 6 6 5 5 5 5 5 3 3 3 3 4 3 2 2 2 1 0 2 3 4 6 6 6 7 7 8 8 7 4 4 4 9 8 7 7 7 7 7 8 8 8 8 10 11 10 10 11 10 9 9 9 10 11 12 11 10 9 9 9 9
2 2 2 1 2 2 2 6 3 1 4 7 8 7 6 6 6 6 6 8 9 7 5 4 3 3 3 4 2 2 2 3 3 4 4 5 6 6 7 8 6 7 4 3 5 8 8 6 7 8 8 8 9 8 8 9 8 8 6 8 9 9 9 10 11 11 11 11 10 10 10 9 9 10
4 4 3 3 3 4 5 6 7 5 2 5 6 6 6 5 4 5 4 7 8 8 8 8 7 6 4 2 2 1 2 4 4 4 5 5 4 6 8 8 7 7 5 5 6 8 8 5 7 9 8 9 10 10 8 7 6 0 5 7 8 8 9 10 11 12 12 12 12 12 11 9 8 11
5 8 11 6 5 6 6 7 8 4 2 4 5 5 5 4 3 3 2 2 3 5 5 4 4 3 4 2 2 3 3 4 5 4 6 6 6 8 7 9 8 8 7 6 5 8 8 7 7 9 9 10 8 7 7 7 6 6 8 8 8 9 9 10 12 12 12 12 12 12 11 11 9 9
5 6 9 12 10 8 8 11 10 8 4 5 4 3 3 3 3 2 1 2 2 1 2 2 2 3 5 4 3 3 7 5 7 6 6 6 7 8 8 9 9 9 5 1 3 9 9 8 8 8 9 10 7 6 6 6 7 9 9 9 9 9 9 12 14 15 14 14 13 13 11 10 8 9
5 6 7 8 10 11 13 13 13 12 10 6 4 2 2 2 3 3 2 2 1 0 1 1 1 2 2 2 3 4 4 5 6 6 6 6 7 8 8 8 8 9 8 7 9 10 11 12 11 10 10 12 10 8 9 11 10 10 9 10 10 12 11 12 13 15 15 14 13 12 13 11 8 8
5 5 6 6 8 11 12 12 13 12 12 9 6 5 5 4 3 1 1 2 2 1 1 2 3 3 3 4 4 5 5 5 5 6 6 6 7 7 9 10 11 11 10 11 3 9 11 11 13 11 11 11 12 12 11 11 10 10 10 10 11 10 10 10 10 11 11 11 13 14 16 14 8 7
4 5 5 5 6 10 11 11 12 12 11 9 7 6 6 5 3 2 2 1 1 2 2 3 4 5 5 5 5 5 6 6 5 5 6 7 7 7 9 11 13 14 12 10 4 11 12 12 11 11 11 11 12 11 12 11 11 11 10 10 9 10 11 11 11 11 11 11 10 10 5 3 6 8
6 6 6 6 7 10 11 12 11 11 11 10 8 8 7 6 2 2 1 2 3 3 4 5 5 5 5 5 5 5 6 5 5 6 6 8 9 11 11 12 12 13 13 13 13 13 13 13 12 12 13 12 14 13 12 12 11 9 11 11 11 11 11 10 11 11 11 11 11 11 8 11 12 12
6 6 6 7 10 12 13 13 13 13 11 8 9 8 6 3 2 2 2 3 3 4 5 5 5 5 5 6 6 6 6 6 8 8 10 11 11 11 11 12 12 13 13 13 13 13 13 13 12 12 13 12 13 13 13 12 12 11 12 11 11 11 11 11 11 11 11 11 10 10 10 10 8 6
6 10 13 12 12 12 12 13 12 11 10 9 8 6 2 1 2 3 3 3 4 4 4 5 5 6 5 5 6 8 10 11 10 10 9 8 9 9 10 10 10 11 10 10 10 11 11 11 12 11 11 11 12 13 13 14 12 12 11 12 11 9 9 9 10 10 10 10 11 10 9 9 8 7
14 14 13 13 11 9 6 5 6 6 6 7 6 4 2 3 3 4 4 4 4 5 5 5 6 6 6 6 7 9 8 8 8 8 8 8 8 8 8 9 9 9 10 10 10 10 10 10 11 11 11 11 12 13 13 13 12 11 11 11 11 11 11 10 10 9 9 9 9 9 8 8 9 8
9 9 7 8 10 9 10 9 7 7 4 3 2 3 3 3 3 3 5 4 4 5 6 6 6 7 7 7 7 7 7 7 7 7 8 8 8 8 8 9 10 10 9 9 9 9 9 10 11 11 11 11 11 12 12 11 13 12 12 11 10 10 9 10 10 10 10 9 10 10 9 9 9 8
8 9 10 9 6 6 5 4 3 3 3 3 2 3 3 3 3 1 4 5 5 5 5 6 6 6 7 7 7 7 7 7 7 7 8 8 9 9 9 9 10 10 10 9 8 8 9 9 10 10 11 11 12 11 10 11 11 12 12 11 11 11 10 10 10 10 10 10 10 10 10 9 9 9
8 7 6 4 4 3 2 2 2 3 3 2 2 3 4 3 3 5 6 6 5 5 6 6 6 6 7 7 7 7 8 8 8 8 8 9 9 9 9 10 10 10 11 10 9 9 8 8 9 10 10 11 11 12 11 12 12 11 12 12 11 11 10 10 10 10 10 10 9 9 10 10 9 9
7 4 4 3 2 2 2 2 2 2 2 2 2 2 2 2 3 4 5 5 5 5 5 6 6 6 7 7 8 8 8 8 8 8 8 9 9 9 9 10 10 10 10 11 10 10 9 8 8 9 10 10 10 12 11 11 12 11 10 10 10 11 10 10 9 10 9 9 9 10 10 10 9 8
5 5 4 3 2 2 2 2 2 2 2 3 2 3 2 2 2 2 4 6 4 4 5 5 6 6 7 7 7 7 7 8 9 8 7 8 8 9 9 10 10 10 10 11 10 10 9 9 8 9 9 9 9 10 11 12 11 11 10 9 9 9 9 8 8 8 8 8 8 8 8 9 9 7
4 3 3 3 2 2 2 2 1 1 2 2 2 3 3 3 3 3 4 4 5 4 5 6 6 7 7 7 8 8 8 8 8 8 8 8 8 8 9 10 10 11 10 10 11 10 9 9 8 9 9 9 9 9 7 11 13 10 10 8 8 9 9 8 8 8 8 8 7 6 6 8 7 6
4 3 3 3 2 2 2 1 1 2 3 2 2 2 3 3 3 3 3 3 5 5 5 6 7 7 7 8 8 8 8 8 8 8 8 8 8 8 9 9 10 10 10 10 10 10 9 9 8 8 9 9 9 9 8 4 10 15 9 8 8 8 8 8 8 7 6 6 7 6 5 6 7 4
4 4 3 3 4 3 2 1 1 2 2 2 2 2 3 4 4 4 4 5 5 5 5 6 6 7 7 7 8 8 8 8 8 8 8 8 8 8 9 9 10 10 10 10 10 10 9 9 9 9 8 9 9 9 8 5 4 5 11 9 8 7 7 8 8 7 6 5 5 5 4 5 4 2
5 4 4 4 3 3 2 1 1 1 2 2 2 2 3 3 3 3 3 3 4 6 5 6 6 7 8 8 8 8 9 9 9 9 8 8 8 9 9 10 10 10 10 10 10 9 9 9 9 9 9 8 8 8 8 8 9 7 4 9 7 9 8 7 8 8 7 6 5 3 1 1 2 2
5 4 4 5 4 3 2 1 1 1 1 2 2 4 3 3 3 3 3 3 4 5 6 6 7 7 8 8 8 8 8 9 9 9 8 9 9 9 9 9 10 10 10 10 10 9 9 9 8 8 8 8 8 7 8 9 10 9 8 9 14 12 9 6 7 6 6 5 4 3 1 1 1 1
6 4 4 4 4 3 2 1 1 1 2 2 3 3 2 3 3 3 4 4 4 4 7 7 7 7 8 8 8 8 9 9 9 9 9 9 9 9 10 10 10 9 9 10 10 10 9 8 7 6 7 8 7 5 6 7 8 6 5 4 7 12 12 10 8 6 6 3 3 2 2 1 1 0
4 4 3 4 3 3 2 2 2 1 2 2 2 3 3 3 3 5 5 2 3 4 6 7 8 8 8 8 8 8 9 9 9 9 9 9 9 10 10 9 10 9 9 10 10 10 10 9 8 6 6 6 6 5 7 7 7 6 5 4 3 7 4 2 7 9 8 4 2 2 1 1 1 1
5 4 3 3 2 1 1 1 1 1 2 2 2 3 3 3 3 4 4 4 4 5 7 7 8 8 8 8 8 8 9 9 9 10 10 9 9 9 9 9 9 10 10 10 10 10 9 8 7 5 5 5 5 5 7 6 6 5 5 4 2 2 2 6 5 1 1 3 4 4 2 2 2 2
4 4 3 2 2 1 1 1 1 1 2 2 2 2 3 4 4 4 4 4 5 7 7 8 8 8 9 9 9 8 8 9 9 10 10 10 9 9 9 9 10 10 9 9 9 8 7 6 5 5 5 5 4 5 6 5 5 3 3 3 2 2 1 2 4 7 8 9 11 8 4 1 1 3
3 3 2 2 2 1 1 0 0 1 2 2 2 3 3 3 3 4 3 4 5 7 8 8 8 8 9 9 9 9 9 10 10 9 9 9 9 9 8 9 9 9 9 8 8 8 6 6 5 4 4 4 4 4 4 4 3 2 2 2 1 1 1 2 3 4 5 5 10 9 8 9 11 14
Wind_Direction
83 91 86 93 95 86 79 78 77 69 65 71 84 266 187 157 142 147 122 99 95 58 27 70 56 48 55 49 50 56 53 21 19 63 63 61 58 42 49 47 49 48 47 47 49 47 44 42 39 36 32 33 33 30 25 19 16 13 8 5 357 345 326 314 308 304 300 304 306 309 318 264 239 217
62 63 72 91 100 91 88 86 72 73 66 66 69 85 156 251 172 143 133 105 68 85 61 48 61 46 48 54 52 54 59 18 31 54 64 62 62 60 50 47 45 44 43 43 42 43 41 37 33 28 26 25 22 24 27 26 23 18 17 12 10 3 356 339 327 316 309 311 304 299 285 274 264 246
72 82 78 66 82 74 93 103 95 87 82 79 74 69 80 100 115 130 130 126 86 18 81 73 55 54 51 54 61 61 55 28 29 59 58 61 53 79 61 50 48 44 43 42 40 40 41 37 32 21 21 18 14 12 13 17 17 22 22 19 19 16 9 358 344 329 325 321 325 322 308 294 264 252
129 121 124 100 97 101 117 108 100 92 75 59 75 72 77 82 87 113 117 113 118 80 71 92 93 70 63 45 65 69 65 65 33 63 62 53 26 61 86 68 50 49 45 44 40 38 35 30 31 25 21 18 13 9 7 7 8 14 16 15 11 9 10 6 356 348 336 328 327 330 330 327 318 294
186 131 123 126 103 336 113 115 124 109 101 95 84 85 87 90 89 101 109 114 119 120 93 92 92 72 22 72 49 64 66 53 66 68 58 48 46 47 49 84 67 48 49 46 43 38 31 27 24 20 19 17 12 8 5 1 0 360 360 359 1 1 360 357 353 348 345 342 334 330 325 326 327 316
171 186 178 145 144 175 127 141 140 134 138 124 115 106 104 106 109 105 108 109 123 131 161 139 135 111 16 90 63 67 57 60 41 58 60 52 43 38 25 38 77 55 45 45 47 38 32 25 16 10 7 5 4 2 358 356 353 350 350 349 349 353 350 342 337 331 333 332 331 330 324 319 316 312
178 196 199 182 168 171 165 160 140 155 157 139 119 116 107 112 118 127 120 125 123 137 126 147 135 112 79 50 62 62 73 57 40 67 65 50 48 40 26 23 57 75 29 42 37 31 28 22 10 2 356 351 351 350 348 349 346 345 345 345 345 347 343 338 333 326 313 312 320 319 316 313 303 296
239 236 218 203 187 184 183 173 172 181 174 171 144 145 134 136 134 129 148 118 120 137 135 163 144 126 135 126 77 74 87 60 44 32 61 61 52 34 28 25 12 82 48 33 27 18 11 15 2 349 343 338 337 335 334 335 336 337 337 339 342 338 335 331 327 328 321 311 309 305 298 289 289 281
259 249 239 230 203 200 208 182 197 183 185 188 176 171 161 154 145 151 158 137 133 133 127 136 138 154 125 92 73 27 12 96 76 57 38 30 21 25 12 1 24 152 191 203 142 359 321 2 347 329 328 325 323 323 320 320 323 325 327 333 336 331 328 327 330 331 329 324 315 303 297 291 287 284
245 243 240 225 207 208 219 211 203 198 199 191 195 179 182 160 162 162 156 165 143 131 128 141 147 181 158 158 88 42 30 22 14 11 11 199 16 5 0 358 7 346 345 336 306 260 294 346 312 305 316 306 305 308 310 309 311 315 320 327 329 325 323 330 337 334 330 328 325 322 317 307 299 295
248 248 247 240 223 220 223 220 211 201 201 191 195 184 179 183 171 161 149 186 154 136 137 131 130 145 143 21 116 101 20 102 40 14 353 345 7 351 345 339 347 290 303 233 198 246 283 285 284 304 280 278 282 293 299 298 292 305 317 324 324 320 321 331 329 320 318 319 321 323 322 319 313 305
241 240 241 242 238 233 229 231 224 206 205 197 203 188 180 166 164 160 165 208 188 154 151 151 150 143 140 153 136 174 221 224 161 38 351 335 336 337 329 300 325 341 310 317 313 249 229 256 254 239 236 229 243 275 280 279 290 295 322 328 319 314 314 325 313 309 308 308 309 309 308 308 309 309
253 249 247 246 245 234 237 240 238 222 212 205 210 185 175 170 180 176 186 198 198 180 170 152 151 164 157 95 27 14 8 4 350 347 332 321 330 326 323 325 213 354 334 331 319 317 326 316 323 322 321 334 323 288 258 271 254 350 339 321 313 308 309 311 303 306 313 314 314 313 309 305 301 299
252 347 285 258 243 237 232 237 261 275 245 240 259 183 178 186 191 188 194 201 210 211 217 174 158 231 167 87 38 334 46 337 282 289 318 323 330 320 320 319 93 6 354 338 324 321 327 321 315 320 318 320 304 315 298 357 346 320 313 310 307 303 288 297 299 306 308 309 312 317 318 313 306 299
255 249 257 276 269 245 229 213 226 228 228 230 251 278 221 199 187 186 197 204 219 231 238 127 156 129 267 164 235 275 320 217 308 321 310 314 323 330 331 322 327 112 6 337 316 307 319 313 313 319 312 312 312 309 316 341 309 301 301 301 303 298 285 290 290 289 293 296 303 310 316 317 314 307
291 292 290 291 286 256 243 190 225 216 217 215 211 194 190 179 15 19 165 158 161 183 172 164 155 175 250 217 228 241 282 325 306 292 303 309 322 319 313 306 302 330 6 330 314 305 311 303 303 300 301 298 294 301 298 286 287 297 296 292 292 290 284 288 282 282 285 288 290 296 303 309 310 305
314 312 300 302 311 327 126 207 207 202 166 168 153 133 110 92 95 91 63 34 3 191 220 191 175 217 224 246 174 52 21 346 303 309 308 319 312 307 298 300 309 311 336 310 302 302 305 302 296 302 300 291 285 285 254 275 300 294 294 296 290 283 274 278 282 287 288 284 279 278 288 295 298 301
316 315 309 311 314 333 334 348 182 177 162 151 147 151 144 111 84 67 68 73 49 27 22 249 262 120 47 359 90 117 134 306 308 310 305 311 304 300 298 304 293 292 286 289 305 294 296 307 305 295 298 298 294 283 284 267 271 279 285 288 286 279 267 267 276 280 283 283 278 274 276 286 295 297
321 320 312 303 318 339 333 13 345 174 159 155 149 139 119 104 84 69 53 36 40 53 43 46 56 84 82 77 108 137 247 284 290 295 297 299 294 290 284 273 259 268 251 252 284 289 301 303 295 294 299 303 297 294 290 243 243 266 278 281 281 276 259 256 266 274 278 280 277 274 274 279 283 290
11 4 357 1 39 29 28 55 28 27 153 151 143 126 112 105 93 73 55 42 42 44 54 63 70 81 56 27 26 14 331 270 259 259 256 259 259 274 289 291 293 281 275 239 283 288 292 300 292 297 301 298 292 297 294 295 262 262 280 283 281 278 272 274 281 282 280 279 282 282 283 283 281 281
40 31 23 55 67 66 59 44 69 62 144 138 127 121 116 113 113 101 79 45 43 50 62 63 65 72 84 87 55 48 314 309 316 286 279 282 299 299 294 293 294 291 298 280 282 284 286 290 298 297 298 298 299 295 289 290 289 356 279 272 264 258 262 269 276 282 283 286 290 293 289 284 285 288
64 50 31 24 86 84 79 70 80 75 140 127 125 130 133 130 110 97 78 81 59 58 63 61 63 73 60 46 284 261 245 221 246 274 291 312 306 292 291 292 299 299 292 279 301 291 285 304 299 299 299 295 282 283 293 297 283 245 247 248 252 255 262 280 288 287 286 286 287 285 286 291 296 289
85 79 57 44 55 77 85 76 70 57 75 107 99 103 114 116 113 93 125 112 114 147 191 185 183 183 195 214 236 183 185 220 232 248 274 291 287 289 291 293 297 294 284 24 316 292 298 306 300 301 302 294 297 288 284 286 299 304 300 298 294 293 290 284 284 283 277 276 275 275 273 277 278 296
96 93 87 71 67 76 74 73 68 58 50 84 92 97 105 118 108 118 115 69 19 143 310 302 272 287 287 265 248 259 235 218 229 252 264 273 277 282 284 284 283 281 288 291 307 294 294 297 293 297 294 295 292 294 296 291 290 292 295 293 290 290 288 274 255 245 244 253 259 260 263 264 260 290
123 109 90 90 62 69 70 71 70 66 52 44 62 53 68 58 69 75 123 96 285 289 263 267 276 276 275 275 272 270 265 269 270 269 266 266 267 272 282 287 285 281 284 299 351 281 284 291 292 293 285 280 282 289 289 292 291 290 291 290 289 287 284 285 291 288 279 260 248 249 251 253 231 250
119 107 104 96 82 85 84 80 77 74 71 66 76 71 79 80 76 97 106 153 243 279 289 300 294 288 286 285 286 280 278 277 274 276 277 271 268 270 274 280 284 286 284 289 237 275 280 283 281 286 284 285 284 286 291 289 290 289 286 282 280 281 281 285 287 287 287 287 285 273 298 173 221 232
122 114 110 103 92 90 90 88 85 86 89 81 80 90 83 77 103 234 31 345 306 310 302 294 289 287 284 288 292 290 292 293 292 290 290 291 287 284 281 277 275 276 282 284 282 277 272 274 277 276 281 282 286 287 283 286 287 288 285 283 280 277 278 281 284 286 286 287 285 288 266 234 234 244
120 127 113 108 105 95 90 84 79 73 71 86 85 82 88 100 43 358 333 313 318 298 290 289 294 295 299 295 294 305 310 306 304 298 296 294 290 287 286 284 280 277 279 280 279 275 271 273 275 273 273 277 279 281 284 282 282 283 285 287 286 285 285 283 282 283 284 281 280 280 287 290 273 235
92 92 104 110 104 102 101 105 102 89 81 82 82 76 67 277 16 4 346 330 321 307 303 304 303 301 304 308 303 305 307 306 301 295 295 294 292 290 287 285 282 280 277 274 274 272 271 270 271 273 271 269 269 272 276 282 287 288 288 291 286 285 288 288 285 283 282 283 285 283 283 286 283 282
106 109 110 112 115 111 113 109 85 83 88 95 101 98 10 25 17 360 348 335 323 318 317 314 308 311 315 312 317 312 303 298 299 303 300 301 297 294 293 293 287 284 280 277 274 273 269 268 268 271 271 267 266 271 275 281 281 281 282 279 283 288 280 276 276 277 278 280 276 281 287 290 288 295
118 118 113 93 86 92 85 92 103 104 136 135 96 39 26 22 11 5 4 354 334 329 325 320 316 317 316 313 308 306 308 301 300 302 298 293 293 296 296 295 293 291 288 286 281 277 274 268 267 268 268 269 269 268 275 278 280 282 282 281 281 279 286 289 288 285 285 285 287 285 286 289 289 277
118 116 120 127 130 131 129 124 98 74 63 59 39 17 11 16 34 12 206 243 337 329 322 311 309 307 307 304 305 305 301 299 299 300 297 295 295 297 297 293 291 295 296 293 289 279 267 266 266 268 267 268 271 276 278 276 276 278 280 280 279 279 279 279 283 286 284 287 286 285 284 282 278 280
132 133 128 120 122 111 103 93 77 59 46 35 36 33 10 6 4 354 355 348 340 333 321 315 310 305 303 302 302 299 298 300 302 301 297 295 296 296 293 288 291 295 298 299 297 292 286 279 266 263 266 270 273 275 275 276 270 271 276 282 284 281 281 278 281 281 285 284 279 280 282 278 279 280
136 135 130 123 116 112 93 82 69 51 35 24 16 20 11 342 1 351 348 347 339 328 315 310 307 305 304 301 302 301 300 302 302 302 298 298 298 294 291 289 288 291 292 292 294 293 292 286 283 277 272 268 264 264 263 266 273 277 277 281 280 283 282 284 280 283 286 285 284 283 282 284 284 284
135 138 131 119 108 99 88 72 66 44 34 22 7 5 351 348 340 333 340 347 335 326 324 320 314 308 304 302 302 301 300 301 304 305 303 298 294 290 288 287 288 289 291 292 292 292 292 291 289 287 282 278 276 268 249 248 267 269 283 280 283 280 282 284 290 292 295 294 290 285 287 285 282 284
138 138 131 126 111 107 96 88 77 56 35 25 4 353 346 345 344 326 336 341 324 327 328 329 324 318 312 306 302 300 300 298 295 296 299 298 295 291 288 284 284 285 286 286 287 289 288 287 285 282 281 282 282 283 280 217 224 266 271 281 280 281 285 290 295 300 297 290 286 287 287 285 285 289
134 130 124 121 121 113 104 98 71 51 40 19 359 351 343 336 335 325 330 292 327 335 336 323 322 319 312 307 303 299 296 294 296 298 296 295 292 290 288 287 287 287 285 282 283 285 283 279 276 274 278 282 281 282 282 302 214 220 263 276 283 287 298 306 307 299 287 291 303 303 297 294 291 313
138 135 133 126 119 109 105 99 76 50 28 8 351 344 337 332 332 331 324 335 342 335 335 324 325 322 318 312 306 303 300 297 298 297 297 298 297 296 293 293 292 290 289 289 287 284 280 274 272 272 273 275 284 284 293 292 299 228 221 250 270 286 293 292 290 290 293 306 299 306 311 294 303 22
140 139 134 128 128 134 117 88 59 42 13 359 347 342 333 333 337 329 333 330 338 332 327 327 325 323 314 311 308 306 305 306 305 304 304 304 301 298 297 294 293 293 294 292 290 286 281 273 269 268 266 268 271 284 293 298 285 291 234 196 247 272 273 275 280 280 284 291 295 304 11 69 73 47
129 123 122 128 131 125 112 89 56 26 2 347 340 347 338 335 333 332 332 323 326 329 336 335 326 318 317 316 312 308 305 303 304 306 304 301 300 296 295 296 295 295 294 292 291 289 286 283 278 273 272 271 279 278 285 283 283 284 281 256 234 242 260 269 265 276 283 283 286 291 287 214 252 338
130 129 133 133 125 112 95 68 38 12 349 336 331 336 330 333 322 337 328 321 325 328 342 332 323 314 312 314 313 312 307 305 306 307 306 304 302 301 296 293 291 290 289 288 288 288 286 287 292 271 259 279 277 280 271 266 269 277 273 276 214 211 232 237 254 261 270 280 278 282 265 273 291 213
136 134 138 133 115 97 79 50 15 352 333 336 337 343 335 327 333 300 295 302 320 317 329 329 324 318 316 316 317 316 312 310 308 309 308 306 305 302 297 295 292 291 287 285 287 288 292 296 294 279 270 269 267 254 259 264 276 287 292 293 298 135 131 266 245 247 253 256 250 236 232 216 210 226
140 137 130 117 110 95 62 34 2 334 337 335 340 337 332 334 332 335 343 342 333 324 333 327 326 323 322 322 319 316 313 310 308 305 303 300 297 296 296 296 294 292 287 284 284 288 291 293 289 285 275 261 253 250 262 272 279 287 290 293 306 336 18 21 13 123 61 33 359 332 315 318 288 277
134 133 128 120 110 91 61 27 348 328 327 339 340 338 343 337 336 344 348 342 329 332 329 322 323 325 325 324 320 316 312 310 309 305 303 300 296 293 295 297 297 296 296 292 295 296 299 297 291 285 276 264 260 253 258 269 276 282 293 306 329 342 22 50 75 75 69 43 20 356 343 345 89 33
134 127 122 110 91 71 53 10 323 335 339 343 344 350 339 334 341 344 346 330 330 327 320 321 322 324 324 322 321 317 315 309 303 303 300 300 301 303 302 304 305 306 302 301 299 299 304 303 298 284 268 264 262 256 266 272 286 299 291 311 353 65 57 58 67 63 51 46 18 26 62 78 89 95